Folgueroles (Osona)





Hora UTC 18:05
Temperatura 13.8 ºC
Humitat 79.0 %
Pressió 1011.8 hPa
Pluja 0.0 mm
Velocitat vent 3.2 km/h
Direcció vent NNW

Dades diàries 2024-04-16



Hora UTC (hivern +1h; estiu +2h)
Temperatura (ºC) Humitat (%) Pressió (hPa) Velocitat vent (km/h) Precipitació (mm)
Hora UTC Aire Humitat Pressió Vel. Dir. Vel. Max Dir. Intent. màx 5 min.
00:05 10.9 76.0 1016.4 0.0 ESE 0.0 0.0
00:10 10.8 76.0 1016.4 0.0 ESE 0.0 0.0
00:15 10.8 76.0 1016.4 0.0 ESE 0.0 0.0
00:20 10.7 76.0 1016.3 0.0 ESE 0.0 0.0
00:25 10.7 76.0 1016.2 0.0 ESE 0.0 0.0
00:30 10.7 76.0 1016.2 0.0 ESE 0.0 0.0
00:35 10.7 77.0 1016.1 0.0 ESE 0.0 0.0
00:40 10.7 76.0 1016.1 0.0 ESE 0.0 0.0
00:45 10.7 77.0 1016.1 0.0 ESE 0.0 0.0
00:50 10.7 77.0 1016.1 0.0 ESE 0.0 0.0
00:55 10.7 78.0 1015.9 0.0 ESE 0.0 0.0
01:00 10.7 79.0 1015.9 0.0 ESE 0.0 0.0
01:05 10.7 79.0 1015.9 1.6 S 6.4 0.0
01:10 10.7 80.0 1015.8 0.0 S 6.4 0.0
01:15 10.7 80.0 1015.7 0.0 S 3.2 0.0
01:20 10.7 81.0 1015.6 0.0 S 0.0 0.0
01:25 10.6 81.0 1015.7 0.0 S 0.0 0.0
01:30 10.6 81.0 1015.7 0.0 S 0.0 0.0
01:35 10.4 80.0 1015.5 0.0 S 0.0 0.0
01:40 10.3 80.0 1015.5 0.0 S 0.0 0.0
01:45 10.2 79.0 1015.5 0.0 S 0.0 0.0
01:50 10.0 79.0 1015.6 0.0 S 0.0 0.0
01:55 9.8 79.0 1015.4 0.0 S 0.0 0.0
02:00 9.7 80.0 1015.4 0.0 S 0.0 0.0
02:05 9.7 81.0 1015.4 0.0 S 0.0 0.0
02:10 9.7 81.0 1015.4 0.0 S 0.0 0.0
02:15 9.7 82.0 1015.4 0.0 S 0.0 0.0
02:20 9.7 81.0 1015.3 0.0 S 0.0 0.0
02:25 9.5 81.0 1015.1 0.0 S 0.0 0.0
02:30 9.4 82.0 1015.0 0.0 S 0.0 0.0
02:35 9.3 83.0 1014.9 0.0 S 0.0 0.0
02:40 9.3 84.0 1014.9 0.0 S 0.0 0.0
02:45 9.3 84.0 1014.9 0.0 S 0.0 0.0
02:50 9.3 84.0 1015.1 0.0 S 0.0 0.0
02:55 9.2 84.0 1015.1 0.0 S 0.0 0.0
03:00 9.2 84.0 1015.1 0.0 S 0.0 0.0
03:05 9.2 84.0 1015.1 0.0 S 0.0 0.0
03:10 9.2 84.0 1015.1 0.0 S 0.0 0.0
03:15 9.1 84.0 1015.2 0.0 S 0.0 0.0
03:20 8.9 84.0 1015.2 0.0 S 0.0 0.0
03:25 8.8 84.0 1015.1 0.0 S 0.0 0.0
03:30 8.7 85.0 1015.0 0.0 S 0.0 0.0
03:35 8.6 85.0 1015.0 0.0 S 0.0 0.0
03:40 8.5 84.0 1014.9 0.0 S 0.0 0.0
03:45 8.3 85.0 1014.8 0.0 S 0.0 0.0
03:50 8.2 85.0 1014.6 0.0 S 0.0 0.0
03:55 8.2 86.0 1014.6 0.0 S 0.0 0.0
04:00 8.1 86.0 1014.6 0.0 S 0.0 0.0
04:05 8.2 87.0 1014.4 0.0 S 0.0 0.0
04:10 8.2 87.0 1014.6 0.0 S 0.0 0.0
04:15 8.2 87.0 1014.7 0.0 S 0.0 0.0
04:20 8.2 87.0 1014.8 0.0 S 0.0 0.0
04:25 8.2 87.0 1014.7 0.0 S 0.0 0.0
04:30 8.2 86.0 1014.6 0.0 S 0.0 0.0
04:35 8.0 86.0 1014.5 0.0 S 0.0 0.0
04:40 7.9 86.0 1014.4 0.0 S 0.0 0.0
04:45 7.8 86.0 1014.5 0.0 S 0.0 0.0
04:50 7.7 85.0 1014.7 0.0 S 0.0 0.0
04:55 7.6 85.0 1014.9 0.0 S 0.0 0.0
05:00 7.5 85.0 1015.0 0.0 S 0.0 0.0
05:05 7.4 85.0 1015.1 0.0 S 0.0 0.0
05:10 7.3 85.0 1015.0 0.0 S 0.0 0.0
05:15 7.2 85.0 1014.9 0.0 S 0.0 0.0
05:20 7.3 85.0 1015.0 0.0 S 0.0 0.0
05:25 7.3 85.0 1014.8 0.0 S 0.0 0.0
05:30 7.4 85.0 1014.6 0.0 S 0.0 0.0
05:35 7.3 84.0 1014.8 0.0 S 0.0 0.0
05:40 7.3 85.0 1014.6 0.0 S 0.0 0.0
05:45 7.3 85.0 1014.9 0.0 S 0.0 0.0
05:50 7.5 85.0 1014.8 0.0 SSE 0.0 0.0
05:55 7.8 85.0 1014.9 0.0 SSE 0.0 0.0
06:00 8.0 85.0 1014.8 0.0 SSE 0.0 0.0
06:05 8.2 84.0 1014.7 0.0 SSE 0.0 0.0
06:10 8.4 83.0 1015.0 0.0 SSE 0.0 0.0
06:15 8.6 83.0 1014.9 0.0 SSE 0.0 0.0
06:20 8.8 82.0 1014.9 0.0 SSE 0.0 0.0
06:25 8.9 82.0 1014.9 0.0 SSE 0.0 0.0
06:30 9.2 81.0 1014.8 0.0 SSE 0.0 0.0
06:35 9.4 79.0 1014.8 0.0 SSE 0.0 0.0
06:40 9.6 78.0 1014.8 0.0 SSW 0.0 0.0
06:45 9.6 78.0 1014.8 0.0 SSW 0.0 0.0
06:50 9.7 78.0 1014.8 0.0 SSW 0.0 0.0
06:55 9.8 79.0 1014.8 0.0 NNW 0.0 0.0
07:00 9.8 78.0 1014.7 0.0 NNW 0.0 0.0
07:05 9.8 79.0 1014.7 0.0 NNW 0.0 0.0
07:10 9.9 79.0 1014.7 1.6 NNE 6.4 0.0
07:15 9.9 77.0 1014.7 0.0 NW 6.4 0.0
07:20 9.9 78.0 1014.6 1.6 NW 6.4 0.0
07:25 9.9 77.0 1014.5 0.0 NW 6.4 0.0
07:30 10.0 78.0 1014.5 3.2 N 8.0 0.0
07:35 10.1 78.0 1014.5 1.6 N 6.4 0.0
07:40 10.2 77.0 1014.5 0.0 N 3.2 0.0
07:45 10.2 76.0 1014.5 4.8 NE 6.4 0.0
07:50 10.3 75.0 1014.5 0.0 NE 6.4 0.0
07:55 10.4 75.0 1014.5 3.2 ENE 6.4 0.0
08:00 10.7 74.0 1014.4 1.6 ENE 6.4 0.0
08:05 10.9 74.0 1014.4 3.2 ENE 6.4 0.0
08:10 11.1 73.0 1014.3 1.6 ENE 4.8 0.0
08:15 11.2 72.0 1014.4 0.0 WNW 3.2 0.0
08:20 11.4 73.0 1014.4 0.0 WNW 3.2 0.0
08:25 11.6 72.0 1014.5 1.6 NNW 4.8 0.0
08:30 11.7 72.0 1014.4 0.0 WNW 4.8 0.0
08:35 11.8 71.0 1014.3 0.0 WNW 4.8 0.0
08:40 11.9 71.0 1014.3 3.2 NNW 3.2 0.0
08:45 12.2 72.0 1014.2 0.0 NNW 4.8 0.0
08:50 12.6 71.0 1014.1 0.0 N 4.8 0.0
08:55 12.9 70.0 1014.1 1.6 SW 4.8 0.0
09:00 13.2 69.0 1014.1 3.2 W 6.4 0.0
09:05 13.3 68.0 1013.9 3.2 W 6.4 0.0
09:10 13.5 68.0 1013.9 0.0 W 4.8 0.0
09:15 13.7 67.0 1014.1 0.0 W 4.8 0.0
09:20 13.8 68.0 1014.0 0.0 W 3.2 0.0
09:25 13.9 67.0 1014.1 0.0 NNE 6.4 0.0
09:30 13.8 67.0 1014.0 1.6 N 8.0 0.0
09:35 13.7 67.0 1014.0 1.6 N 8.0 0.0
09:40 13.7 67.0 1014.1 4.8 ENE 4.8 0.0
09:45 13.8 67.0 1013.9 1.6 SE 4.8 0.0
09:50 13.9 68.0 1013.9 3.2 WSW 6.4 0.0
09:55 14.2 66.0 1013.9 0.0 W 9.7 0.0
10:00 14.4 66.0 1013.8 1.6 W 9.7 0.0
10:05 14.6 67.0 1013.6 0.0 W 6.4 0.0
10:10 14.9 65.0 1013.6 4.8 WNW 14.5 0.0
10:15 15.1 65.0 1013.6 0.0 W 14.5 0.0
10:20 15.3 64.0 1013.6 3.2 W 6.4 0.0
10:25 15.6 64.0 1013.5 6.4 W 6.4 0.0
10:30 15.7 63.0 1013.6 1.6 NW 11.3 0.0
10:35 15.9 63.0 1013.5 3.2 W 11.3 0.0
10:40 16.0 64.0 1013.5 0.0 S 4.8 0.0
10:45 16.3 62.0 1013.4 3.2 W 9.7 0.0
10:50 16.6 60.0 1013.3 4.8 N 9.7 0.0
10:55 16.7 60.0 1013.3 3.2 NE 6.4 0.0
11:00 16.9 61.0 1013.2 0.0 WSW 6.4 0.0
11:05 17.1 59.0 1013.1 0.0 SSW 6.4 0.0
11:10 17.2 60.0 1013.0 3.2 NW 4.8 0.0
11:15 17.7 59.0 1013.1 3.2 W 6.4 0.0
11:20 17.8 59.0 1013.0 4.8 W 9.7 0.0
11:25 17.7 58.0 1012.9 0.0 ESE 9.7 0.0
11:30 17.8 59.0 1012.8 4.8 N 17.7 0.0
11:35 18.3 58.0 1012.8 0.0 W 17.7 0.0
11:40 18.7 57.0 1012.7 1.6 W 11.3 0.0
11:45 19.1 56.0 1012.5 3.2 WSW 11.3 0.0
11:50 19.3 56.0 1012.5 3.2 SSW 9.7 0.0
11:55 19.7 56.0 1012.5 4.8 N 9.7 0.0
12:00 19.6 55.0 1012.4 4.8 WNW 14.5 0.0
12:05 19.6 54.0 1012.3 9.7 NNE 14.5 0.0
12:10 19.6 55.0 1012.2 0.0 NNE 12.9 0.0
12:15 19.7 56.0 1012.2 0.0 WNW 12.9 0.0
12:20 19.9 54.0 1012.1 4.8 NW 9.7 0.0
12:25 19.8 53.0 1012.1 0.0 ENE 8.0 0.0
12:30 19.8 56.0 1012.0 8.0 S 9.7 0.0
12:35 20.2 54.0 1012.0 4.8 W 8.0 0.0
12:40 20.6 52.0 1012.1 6.4 W 11.3 0.0
12:45 20.7 52.0 1011.9 4.8 WNW 11.3 0.0
12:50 20.8 50.0 1011.9 1.6 WSW 12.9 0.0
12:55 20.9 48.0 1011.7 1.6 S 12.9 0.0
13:00 21.0 48.0 1011.8 4.8 WNW 12.9 0.0
13:05 20.9 47.0 1011.7 4.8 NW 12.9 0.0
13:10 21.2 48.0 1011.7 1.6 W 12.9 0.0
13:15 21.3 46.0 1011.6 1.6 W 14.5 0.0
13:20 21.3 47.0 1011.5 3.2 WNW 14.5 0.0
13:25 21.3 46.0 1011.5 0.0 W 12.9 0.0
13:30 21.6 46.0 1011.5 1.6 S 12.9 0.0
13:35 21.4 45.0 1011.3 3.2 SW 14.5 0.0
13:40 21.3 46.0 1011.2 9.7 W 25.7 0.0
13:45 21.3 45.0 1011.1 8.0 WSW 25.7 0.0
13:50 21.4 46.0 1011.1 0.0 S 12.9 0.0
13:55 21.6 45.0 1011.0 3.2 NNW 9.7 0.0
14:00 21.4 45.0 1010.9 4.8 NNE 11.3 0.0
14:05 21.4 45.0 1011.0 6.4 NW 11.3 0.0
14:10 21.7 45.0 1010.9 9.7 W 16.1 0.0
14:15 21.8 44.0 1011.0 12.9 W 20.9 0.0
14:20 21.8 45.0 1010.8 3.2 S 20.9 0.0
14:25 22.1 47.0 1010.7 3.2 ENE 12.9 0.0
14:30 22.0 47.0 1010.6 3.2 W 11.3 0.0
14:35 22.0 47.0 1010.7 0.0 NNE 12.9 0.0
14:40 21.9 47.0 1010.6 3.2 S 12.9 0.0
14:45 21.8 48.0 1010.6 3.2 SE 11.3 0.0
14:50 21.7 51.0 1010.4 3.2 NNW 19.3 0.0
14:55 21.5 51.0 1010.5 3.2 W 19.3 0.0
15:00 21.3 50.0 1010.5 4.8 SSW 9.7 0.0
15:05 20.8 52.0 1010.3 4.8 SSW 11.3 0.0
15:10 20.6 52.0 1010.3 4.8 WSW 11.3 0.0
15:15 20.3 51.0 1010.3 0.0 SW 25.7 0.0
15:20 20.2 53.0 1010.2 3.2 S 25.7 0.0
15:25 20.4 53.0 1010.2 1.6 WSW 9.7 0.0
15:30 20.4 51.0 1010.2 1.6 S 11.3 0.0
15:35 20.6 52.0 1010.2 1.6 W 11.3 0.0
15:40 20.5 52.0 1010.3 0.0 SSW 8.0 0.0
15:45 19.8 59.0 1010.4 1.6 SE 9.7 0.0
15:50 19.0 62.0 1010.3 4.8 E 12.9 0.0
15:55 18.4 63.0 1010.4 1.6 E 17.7 0.0
16:00 17.9 65.0 1010.5 4.8 SSW 17.7 0.0
16:05 17.4 66.0 1010.4 1.6 S 12.9 0.0
16:10 17.0 67.0 1010.5 8.0 ENE 14.5 0.0
16:15 16.6 68.0 1010.4 8.0 ENE 16.1 0.0
16:20 16.2 69.0 1010.6 8.0 ENE 16.1 0.0
16:25 15.9 70.0 1010.7 6.4 E 20.9 0.0
16:30 15.8 70.0 1010.7 8.0 E 20.9 0.0
16:35 15.6 70.0 1010.7 6.4 E 16.1 0.0
16:40 15.4 70.0 1010.7 3.2 S 17.7 0.0
16:45 15.4 71.0 1010.7 3.2 E 17.7 0.0
16:50 15.4 71.0 1010.8 3.2 NNE 6.4 0.0
16:55 15.4 72.0 1010.9 4.8 ENE 8.0 0.0
17:00 15.3 73.0 1011.1 6.4 E 14.5 0.0
17:05 15.1 74.0 1011.1 9.7 NE 16.1 0.0
17:10 14.8 75.0 1011.2 1.6 NE 16.1 0.0
17:15 14.6 76.0 1011.3 4.8 ENE 17.7 0.0
17:20 14.4 76.0 1011.4 0.0 S 17.7 0.0
17:25 14.3 76.0 1011.4 3.2 E 16.1 0.0
17:30 14.2 77.0 1011.5 3.2 ENE 16.1 0.0
17:35 14.0 77.0 1011.5 3.2 ENE 16.1 0.0
17:40 14.0 78.0 1011.5 6.4 ENE 16.1 0.0
17:45 13.9 78.0 1011.6 9.7 ENE 16.1 0.0
17:50 13.9 78.0 1011.7 0.0 E 14.5 0.0
17:55 13.9 78.0 1011.7 6.4 ENE 12.9 0.0
18:00 13.8 79.0 1011.8 0.0 ENE 9.7 0.0
18:05 13.8 79.0 1011.8 3.2 NNW 8.0 0.0
Màxima 22.1 87.0 1016.4 12.9 W 25.7 0.0
Mínima 7.2 44.0 1010.2
Total 0.0